FW1247 Weather Reports


time (UTC)temp
C
wind
direction
speed
KPH
gust
KPH
rain 1hr
cm
rain 24hr
cm
rain mn
cm
humidity
%
barometer
mb
20260831214610 15 208 4.8 12.9 0.00 0.56 0.56 92 1005.4
20260831213058 15 202 4.8 12.9 0.00 0.56 0.56 92 1005.2
20260831211555 15 180 6.4 12.9 0.00 0.56 0.56 92 1005.0
20260831210054 15 220 6.4 14.5 0.00 0.56 0.56 92 1005.1
20260831204553 15 197 4.8 12.9 0.00 0.56 0.56 92 1005.1
20260831203052 15 209 3.2 12.9 0.00 0.56 0.56 92 1005.0
20260831201552 15 209 3.2 8.0 0.00 0.56 0.56 92 1005.0
20260831200055 15 215 3.2 8.0 0.00 0.56 0.56 92 1005.0
20260831194617 15 179 4.8 12.9 0.00 0.56 0.56 92 1004.9
20260831193050 15 232 1.6 6.4 0.00 0.56 0.56 92 1004.8
20260831191551 15 186 0.0 3.2 0.00 0.56 0.56 92 1004.5
20260831190050 15 186 1.6 4.8 0.00 0.56 0.56 92 1004.2
20260831184548 15 193 1.6 6.4 0.00 0.56 0.56 92 1004.1
20260831183046 15 188 4.8 11.3 0.00 0.56 0.56 92 1004.0
20260831181548 15 178 3.2 9.7 0.00 0.56 0.56 92 1004.1
20260831180046 15 161 8.0 11.3 0.00 0.56 0.56 91 1004.1
20260831174545 16 223 3.2 8.0 0.03 0.56 0.56 91 1003.8
20260831173045 16 164 1.6 8.0 0.03 0.56 0.56 90 1003.7
20260831171546 16 170 6.4 9.7 0.03 0.56 0.56 90 1003.9
20260831170043 16 157 8.0 16.1 0.03 0.56 0.56 91 1004.4
20260831164543 17 155 6.4 16.1 0.00 0.53 0.53 89 1004.4
20260831163042 17 260 6.4 14.5 0.00 0.53 0.53 87 1004.3
20260831161540 17 283 8.0 17.7 0.00 0.53 0.53 88 1004.0
20260831160042 18 281 1.6 6.4 0.00 0.53 0.53 89 1003.5
20260831154541 18 285 4.8 9.7 0.13 0.53 0.53 89 1003.7
20260831153039 18 275 3.2 12.9 0.13 0.53 0.53 91 1004.0
20260831151540 18 265 4.8 9.7 0.46 0.53 0.53 91 1003.7
20260831150040 17 223 4.8 24.1 0.46 0.51 0.51 89 1003.7
20260831144538 17 238 4.8 9.7 0.36 0.43 0.43 89 1003.5
20260831143049 16 202 4.8 27.4 0.36 0.43 0.43 85 1003.3
20260831141535 20 280 14.5 22.5 0.03 0.08 0.08 80 1003.8
20260831140035 21 184 6.4 16.1 0.00 0.05 0.05 77 1003.3
20260831134535 21 186 11.3 24.1 0.00 0.05 0.05 75 1003.1
20260831133032 21 203 17.7 30.6 0.00 0.05 0.05 74 1003.2
20260831131543 22 156 9.7 20.9 0.00 0.05 0.05 74 1003.2
20260831130029 21 161 9.7 20.9 0.00 0.05 0.05 77 1003.2
20260831124529 22 188 17.7 29.0 0.00 0.05 0.05 75 1003.3
20260831123029 22 190 14.5 24.1 0.00 0.05 0.05 75 1003.4
20260831121526 22 154 11.3 24.1 0.00 0.05 0.05 75 1003.5
20260831120027 22 156 9.7 27.4 0.00 0.05 0.05 76 1003.5
20260831114522 22 173 9.7 19.3 0.00 0.05 0.05 77 1003.5
20260831113022 21 149 14.5 29.0 0.00 0.05 0.05 75 1003.6
20260831111520 21 180 14.5 24.1 0.00 0.05 0.05 77 1003.6
20260831110017 21 161 8.0 19.3 0.00 0.05 0.05 79 1003.6
20260831104515 21 140 12.9 19.3 0.00 0.05 0.05 78 1003.6
20260831103015 21 163 12.9 22.5 0.00 0.05 0.05 80 1003.7
20260831101512 20 179 9.7 25.7 0.00 0.05 0.05 81 1003.8
20260831100008 20 155 16.1 29.0 0.00 0.05 0.05 84 1003.8
20260831094507 18 167 12.9 17.7 0.00 0.05 0.05 88 1003.9
20260831093009 18 140 11.3 20.9 0.00 0.05 0.05 89 1003.9
20260831091503 18 173 9.7 22.5 0.03 0.05 0.05 90 1004.0
20260831090002 18 158 11.3 22.5 0.05 0.05 0.05 91 1003.9
20260831084607 18 110 9.7 19.3 0.05 0.13 0.05 93 1004.1
20260831083059 17 161 8.0 16.1 0.05 0.13 0.05 93 1004.4
20260831081559 18 136 8.0 20.9 0.03 0.10 0.05 91 1004.6
20260831080058 18 171 12.9 22.5 0.00 0.08 0.03 90 1004.2
20260831074557 18 186 8.0 20.9 0.00 0.10 0.03 91 1004.0
20260831073108 18 152 8.0 22.5 0.00 0.10 0.03 91 1004.2
20260831071552 18 157 9.7 17.7 0.00 0.10 0.03 93 1004.5
20260831070051 18 172 9.7 17.7 0.00 0.10 0.03 94 1004.5
20260831064547 17 167 11.3 25.7 0.00 0.13 0.03 94 1004.7
20260831063045 17 152 6.4 14.5 0.00 0.13 0.03 95 1004.5
20260831061544 17 159 8.0 12.9 0.00 0.13 0.03 96 1004.6
20260831060043 17 181 8.0 20.9 0.00 0.13 0.03 96 1004.6
20260831054540 17 195 6.4 19.3 0.00 0.13 0.03 96 1004.6
20260831053040 17 173 8.0 14.5 0.00 0.13 0.03 96 1004.5
20260831051540 17 159 8.0 14.5 0.03 0.13 0.03 96 1004.6
20260831050034 17 160 6.4 17.7 0.03 0.13 0.03 97 1004.6
20260831044533 17 150 6.4 14.5 0.03 0.13 0.03 97 1004.9
20260831043031 17 168 3.2 14.5 0.03 0.13 0.03 97 1004.8
20260831041602 17 146 4.8 12.9 0.00 0.10 0.00 97 1004.9
20260831040030 17 146 6.4 11.3 0.00 0.10 0.00 97 1004.9
20260831034527 16 134 1.6 4.8 0.00 0.10 0.00 97 1005.0
20260831033028 16 117 0.0 4.8 0.00 0.10 0.00 97 1005.4
20260831031522 16 117 1.6 4.8 0.00 0.10 0.00 97 1005.4
20260831030020 15 117 0.0 3.2 0.00 0.10 0.00 96 1005.5
20260831024518 15 159 1.6 6.4 0.00 0.10 0.00 96 1005.4
20260831023018 15 185 0.0 0.0 0.00 0.10 0.00 96 1005.7
20260831021525 14 185 0.0 0.0 0.00 0.10 0.00 95 1005.8
20260831020014 15 185 0.0 0.0 0.00 0.10 0.00 95 1005.8
20260831014519 14 185 0.0 0.0 0.00 0.10 0.00 95 1005.9
20260831013011 14 186 0.0 0.0 0.00 0.10 0.00 95 1005.8
20260831011517 14 185 0.0 0.0 0.00 0.10 0.00 95 1006.0
20260831010008 15 186 0.0 0.0 0.00 0.10 0.00 95 1006.0
20260831004506 15 186 0.0 0.0 0.00 0.10 0.00 95 1006.2
20260831003004 15 185 0.0 3.2 0.00 0.10 0.00 94 1006.4
20260831001503 15 185 0.0 0.0 0.00 0.10 0.00 94 1006.3
20260831000002 15 185 0.0 1.6 0.00 0.10 0.00 94 1006.5
20260830234502 15 185 0.0 1.6 0.00 0.10 0.00 94 1006.5
20260830233100 15 185 0.0 4.8 0.00 0.10 0.00 94 1006.5
20260830231559 15 175 1.6 6.4 0.00 0.10 0.00 94 1006.5
20260830224600 15 225 0.0 4.8 0.00 0.10 0.00 93 1006.6
20260830223131 15 225 3.2 4.8 0.00 0.10 0.00 93 1006.6
20260830221555 15 242 0.0 3.2 0.00 0.10 0.00 92 1006.6
20260830220050 15 246 0.0 1.6 0.00 0.10 0.00 92 1006.6